www.pogodaiklimat.ru
ПОГОДА в Леско

Архив погоды в Леско (Польша)

Время
(UTC), дата
01 11.05
02 11.05
03 11.05
04 11.05
05 11.05
06 11.05
07 11.05
08 11.05
09 11.05
10 11.05
11 11.05
12 11.05
13 11.05
14 11.05
15 11.05
16 11.05
17 11.05
18 11.05
19 11.05
20 11.05
21 11.05
22 11.05
23 11.05
00 12.05
01 12.05
02 12.05
03 12.05
04 12.05
05 12.05
06 12.05
07 12.05
08 12.05
09 12.05
10 12.05
11 12.05
12 12.05
13 12.05
14 12.05
15 12.05
16 12.05
17 12.05
18 12.05
19 12.05
20 12.05
21 12.05
22 12.05
23 12.05
00 13.05
01 13.05
02 13.05
03 13.05
04 13.05
05 13.05
06 13.05
07 13.05
08 13.05
09 13.05
10 13.05
11 13.05
12 13.05
13 13.05
14 13.05
15 13.05
16 13.05
17 13.05
18 13.05
19 13.05
20 13.05
21 13.05
22 13.05
23 13.05
00 14.05
01 14.05
02 14.05
03 14.05
04 14.05
05 14.05
06 14.05
07 14.05
08 14.05
09 14.05
10 14.05
11 14.05
12 14.05
13 14.05
14 14.05
15 14.05
16 14.05
17 14.05
18 14.05
19 14.05
20 14.05
21 14.05
22 14.05
23 14.05
00 15.05
01 15.05
02 15.05
03 15.05
04 15.05
05 15.05
06 15.05
07 15.05
08 15.05
09 15.05
10 15.05
11 15.05
12 15.05
13 15.05
14 15.05
15 15.05
16 15.05
17 15.05
18 15.05
19 15.05
20 15.05
21 15.05
22 15.05
23 15.05
00 16.05
01 16.05
02 16.05
03 16.05
04 16.05
05 16.05
06 16.05
07 16.05
08 16.05
09 16.05
10 16.05
11 16.05
12 16.05
13 16.05
14 16.05
15 16.05
16 16.05
17 16.05
18 16.05
19 16.05
20 16.05
21 16.05
22 16.05
23 16.05
00 17.05
01 17.05
02 17.05
03 17.05
04 17.05
05 17.05
06 17.05
07 17.05
08 17.05
09 17.05
10 17.05
11 17.05
12 17.05
13 17.05
14 17.05
15 17.05
16 17.05
17 17.05
18 17.05
19 17.05
20 17.05
21 17.05
22 17.05
23 17.05
00 18.05
01 18.05
Ветер
(напр.,м/с)
Видим. Явления Облачность Т
(С)
Тd
(С)
f
(%)
Тe
(С)
Тes
(С)
Комфортность P
(гПа)
Po
(гПа)
Тmin
(С)
Tmax
(С)
R
(мм)
R24
(мм)
S
(см)
ЮВ 2 30 км н/о +5.4 +3.6 88 +3 +3 1021.1 969.6
ЮВ 3 30 км н/о +4.6 +3.3 91 +1 +1 1020.7 969.1
ЮВ 2 30 км н/о +4.4 +2.9 90 +2 +2 1020.6 968.9
ЮВ 3 35 км н/о +5.0 +3.2 88 +1 +1 1020.7 969.1
ЮВ 1 35 км 9/0
[Cs]
+7.0 +4.3 83 +6 +8 1020.4 969.2
ЮВ 1 35 км 9/0
[Cs]
+10.5 +5.7 72 +10 +15 1019.7 969.2 +4.4 +15.3 0.0 0.0
ЮВ 1 35 км 9/0
[Cs]
+14.5 +6.3 58 +15 +23 1018.9 969.1
СЗ 1 35 км 9/0
[Cs]
+17.8 +6.9 49 +19 +30 1018.0 968.8
СЗ 2 35 км 6/1 1000 м
[Cu hum Cs]
+20.0 +6.7 42 +21 +33 комфорт 1017.3 968.5
СЗ 2 35 км 9/1 1000 м
[Cu hum Cs]
+21.2 +7.1 40 +22 +34 комфорт 1017.0 968.4
СЗ 3 30 км 8/4 1000 м
[Cu med, cong Cs]
+22.1 +6.7 37 +23 +30 комфорт 1016.7 968.2
З 2 35 км 8/5 1000 м
[Cu med, cong Cs]
+22.2 +6.4 36 +23 +29 комфорт 1016.2 967.8
ЮЗ 3
{8}
35 км 9/6 1500 м
[Cu med, cong Ci sp]
+23.0 +6.7 35 +24 +27 комфорт 1015.8 967.5
З 4 35 км 8/5 1500 м
[Cu med, cong Ci sp]
+22.8 +7.7 38 +24 +26 комфорт 1015.3 967.0
ЮЗ 4
{8}
35 км 8/4 1500 м
[Cu med, cong Ci sp]
+23.0 +7.5 37 +24 +26 комфорт 1014.9 966.7
ЮЗ 4 35 км 9/1 1500 м
[Sc diur, vesp Ac trans Cs]
+22.1 +7.9 40 +23 +24 комфорт 1015.0 966.6
Ю 3 35 км 9/1 1500 м
[Sc diur, vesp Cs]
+20.9 +7.5 42 +22 +23 комфорт 1015.2 966.6
Ю 4
{8}
35 км 9/1 1500 м
[Sc Cs]
+20.1 +7.1 43 +21 +21 комфорт 1015.4 966.7 +10.5 +23.7
Ю 3 35 км 6/0
[Ac trans Ci sp]
+18.5 +7.0 47 +19 +19 1015.9 966.9
Ю 3 35 км 6/0
[Ac trans Ci sp]
+18.1 +6.3 46 +18 +18 1016.0 966.9
Ю 3 35 км н/о +17.5 +5.7 46 +18 +18 1016.1 966.9
Ю 3 35 км н/о +17.7 +5.6 45 +18 +18 1015.9 966.8
Ю 2 35 км н/о +16.4 +5.9 50 +17 +17 1016.1 966.7
Ю 2 35 км н/о +15.5 +6.2 54 +16 +16 1016.0 966.5
ЮВ 2 35 км н/о +14.7 +6.8 59 +15 +15 1015.9 966.3
Ю 2 35 км н/о +13.8 +7.1 64 +13 +13 1016.0 966.2
Ю 2 35 км н/о +12.8 +6.8 67 +12 +12 1016.0 966.0
Ю 2 35 км н/о +15.1 +7.1 59 +15 +15 1015.5 966.0
Ю 3 30 км 3/0
[Ac trans Ci fib]
+17.4 +8.3 55 +17 +19 1015.4 966.2
Ю 4-9
{9}
30 км 1/0
[Ac trans]
+20.1 +8.1 46 +21 +25 комфорт 1014.5 965.8 +12.3 +20.1
ЮЗ 7-13
{13}
35 км 1/0
[Ac trans]
+21.3 +7.9 42 +22 +25 комфорт 1014.4 965.9
ЮЗ 6-14
{14}
30 км ясно +22.1 +9.3 44 +24 +28 комфорт 1014.1 965.8
ЮЗ 7
{14}
35 км 1/0
[Ac trans]
+23.1 +9.1 41 +25 +28 комфорт 1013.9 965.7
ЮЗ 7
{13}
30 км 1/1 1000 м
[Cu hum Ac trans]
+24.0 +10.6 43 +25 +29 комфорт 1013.7 965.7
ЮЗ 7-12
{13}
35 км 1/1 1000 м
[Cu hum Ac trans]
+24.7 +9.8 39 +26 +30 жарко 1013.1 965.2
ЮЗ 6-11
{14}
35 км 6/3 1000 м
[Cu med, cong Ac trans]
+24.2 +9.7 40 +25 +28 комфорт 1013.2 965.2
Ю 6-12
{12}
35 км 6/5 1000 м
[Cb calv Ac trans]
+24.3 +10.9 43 +26 +28 жарко 1012.6 964.7
З 2
{12}
10 км гроза, ливневой дождь 9/9 1000 м
[Cb cap]
+20.2 +13.6 66 +23 +24 комфорт 1014.3 965.7
Ю 1
{12}
25 км в посл. час гроза {ливн. дождь} 5/5 1000 м
[Cb cap]
+20.9 +17.3 80 +26 +29 душно 1013.5 965.0
ЮЗ 3 30 км 5/4 1000 м
[Cb calv Ac cuf]
+23.5 +14.5 57 +26 +27 жарко 1012.8 964.8
СЗ 2
{9}
30 км 4/3 1000 м
[Cb calv Ac cuf]
+22.4 +15.0 63 +26 +26 жарко 1013.7 965.4
СЗ 2
{12}
25 км {гроза, ливн. дождь} 3/1 1000 м
[Cb calv Ac trans]
+20.2 +12.4 61 +23 +23 комфорт 1015.0 966.3 +18.2 +25.1 5
СЗ 1 30 км 3/1 1000 м
[Sc Ac trans]
+19.0 +10.5 58 +21 +21 комфорт 1016.3 967.4
штиль 0 30 км 6/4 1000 м
[Sc Ac trans]
+18.1 +10.0 59 +18 +18 1017.1 968.0
Ю 1 35 км н/о +17.2 +10.1 63 +18 +18 1017.5 968.2
С 1 27 км н/о +14.9 +11.5 80 +15 +15 1018.1 968.4
З 1 16 км н/о +13.3 +11.4 88 +13 +13 1018.6 968.6
ЮВ 2 24 км н/о +13.1 +11.3 89 +12 +12 1018.7 968.7
Ю 2 19 км н/о +12.1 +10.3 89 +11 +11 1018.8 968.6
В 1 19 км н/о +11.9 +10.5 91 +12 +12 1018.5 968.3
ЮВ 1 18 км н/о +11.1 +10.0 93 +11 +11 1018.7 968.3
Ю 3 13 км н/о +11.0 +10.1 94 +9 +9 1018.9 968.5
В 2 20 км 10/3
[Sc Ac As]
+11.4 +10.3 93 +10 +11 1019.0 968.7
ЮВ 1 2500 м 10/1 1500 м
[Sc Ac As]
+12.4 +10.8 90 +12 +14 1018.7 968.5 +11.0 +20.2 5.2
С 1 35 км 10/0
[Ac As]
+15.1 +11.7 80 +16 +19 1018.0 968.3
В 1 35 км 10/5 2000 м
[Sc Ac As]
+16.7 +9.4 62 +18 +20 1017.3 967.9
ЮВ 1 35 км 9/9 2000 м
[Sc]
+17.8 +10.7 63 +19 +21 1016.9 967.7
Ю 1 35 км 9/3 1500 м
[Cu hum Ac trans Ci sp]
+19.7 +10.7 56 +22 +30 комфорт 1016.2 967.4
З 3 35 км 9/4 1500 м
[Cu med, cong Ac As]
+20.8 +11.1 54 +23 +27 комфорт 1015.6 967.0
З 3 35 км 10/6 1500 м
[Cu med, cong Ac As]
+20.5 +10.0 51 +22 +24 комфорт 1015.1 966.5
З 3 35 км 9/4 1500 м
[Cu med, cong Ac As]
+20.4 +10.2 52 +22 +25 комфорт 1014.5 965.9
З 4 35 км 8/3 1000 м
[Cu med, cong Ac trans Ci fib]
+20.9 +10.7 52 +23 +26 комфорт 1013.8 965.3
ЮЗ 2 35 км 8/5 1000 м
[Cu med, cong Ac trans Ci fib]
+20.7 +11.6 56 +23 +25 комфорт 1013.2 964.7
З 3 25 км гроза, ливневой дождь 10/10 1000 м
[Cb cap]
+17.7 +12.6 72 +18 +18 1013.9 964.9
С 1 35 км в посл. час гроза {ливн. дождь} 8/5 1000 м
[Cb cap Ac cuf Ci fib]
+16.5 +13.6 83 +17 +18 1013.8 964.6
ЮВ 2 35 км {гроза, ливн. дождь} 5/3 1000 м
[Cb calv Ac cuf Ci fib]
+14.9 +13.3 90 +15 +15 1013.9 964.4 +12.4 +21.3 0.5
Ю 2 20 км гроза без осадков 8/8 1000 м
[Cb cap]
+15.1 +13.5 90 +15 +15 1014.2 964.7
ЮЗ 3
{7}
10 км слаб. ливневой дождь, в посл. час гроза 9/9 1000 м
[Cb cap]
+14.7 +12.9 89 +14 +14 1015.2 965.6
ЮЗ 2
{7}
30 км в посл. час дождь н/о +14.1 +12.3 89 +14 +14 1015.5 965.8
СЗ 1 16 км н/о +13.4 +12.0 91 +14 +14 1016.1 966.2
СЗ 2 400 м слаб. дождь н/о +12.5 +11.7 95 +11 +11 1017.0 966.9
З 2
{7}
7000 м в посл. час дождь н/о +11.8 +11.0 95 +11 +11 1017.5 967.3 4
СЗ 3 2300 м дымка н/о +11.3 +10.7 96 +9 +9 1018.0 967.7
З 2 2400 м дымка н/о +10.9 +10.3 96 +9 +9 1018.2 967.8
СЗ 3 2900 м дымка н/о +10.4 +9.8 96 +8 +8 1018.7 968.2
СЗ 3 21 км н/о +10.2 +8.6 90 +8 +8 1019.2 968.6
ЮЗ 2 30 км 9/0
[Cs]
+10.2 +8.1 87 +9 +11 1019.7 969.1
З 2 35 км 8/1 1000 м
[Cu hum Cs]
+11.3 +7.6 78 +10 +14 1020.1 969.7 +10.0 +15.1 4 4.6
СЗ 1 35 км 6/3 600 м
[Cu med, cong Cs]
+12.4 +7.7 73 +13 +19 1020.0 969.8
СЗ 3 35 км 9/9 600 м
[Cu med, cong]
+13.0 +6.6 65 +12 +13 1019.8 969.7
З 3 35 км 8/6 1000 м
[Cu med, cong Ci sp]
+14.0 +6.4 60 +13 +18 1019.2 969.3
З 3 35 км 5/5 1000 м
[Cu med, cong]
+16.0 +6.4 53 +16 +23 1018.3 968.8
З 4 35 км 8/8 1000 м
[Cu med, cong]
+16.2 +5.5 49 +16 +18 1018.1 968.6
З 4 35 км 8/8 1000 м
[Cu med, cong]
+17.6 +5.8 46 +17 +19 1017.5 968.3
З 3 35 км 8/8 1000 м
[Cu med, cong]
+17.6 +5.8 46 +18 +20 1017.5 968.3
СЗ 4-9
{9}
35 км 6/6 1500 м
[Cu med, cong]
+17.6 +4.9 43 +17 +20 1017.4 968.2
З 4
{9}
35 км 6/5 1500 м
[Cu med, cong Ci sp]
+17.5 +4.4 42 +17 +19 1017.1 967.9
СЗ 4
{9}
35 км 9/3 2000 м
[Cu med, cong Cs]
+17.6 +4.9 43 +17 +18 1017.0 967.8
СЗ 3 35 км 9/3 2000 м
[Cu med, cong Cs]
+16.6 +5.5 48 +16 +17 1017.5 968.1
З 1
{9}
35 км 9/3 1500 м
[Sc Cs]
+15.0 +5.5 53 +16 +16 1018.1 968.4 +11.2 +18.3
Ю 1 35 км 9/3 1500 м
[Sc Cs]
+13.9 +5.8 58 +14 +14 1018.7 968.8
СЗ 1 20 км 9/5 1500 м
[Sc Ci sp]
+12.2 +6.7 69 +12 +12 1019.3 969.1
ЮВ 2 30 км н/о +10.7 +6.6 76 +9 +9 1019.6 969.1
ЮВ 2 30 км н/о +10.4 +7.1 80 +9 +9 1020.0 969.4
штиль 0 27 км н/о +10.0 +7.2 83 +9 +9 1020.1 969.5
ЮВ 2 15 км н/о +9.0 +6.8 86 +7 +7 1020.2 969.4
ЮВ 2 27 км н/о +8.7 +6.7 87 +7 +7 1020.3 969.4
ЮВ 1 23 км н/о +8.4 +6.7 89 +8 +8 1020.2 969.3
ЮВ 2 15 км н/о +8.1 +6.7 91 +6 +6 1020.3 969.3
ЮВ 1 24 км н/о +8.6 +7.1 90 +8 +8 1020.6 969.7
В 1 25 км 9/6 2000 м
[Sc Ac trans]
+10.4 +8.2 86 +10 +11 1020.5 969.9
Ю 1 25 км 9/9 2000 м
[Sc]
+12.6 +7.9 73 +13 +13 1020.2 970.0 +8.1 +15.0
З 3 30 км 5/4 2000 м
[Sc Ac trans]
+14.7 +8.0 64 +14 +18 1019.9 970.1
СЗ 4 35 км 4/1 1500 м
[Cu hum Ac trans]
+16.0 +6.1 52 +15 +21 1019.8 970.2
З 6-12
{12}
30 км 6/4 1000 м
[Cu med, cong Ac trans]
+16.6 +5.5 48 +16 +19 1019.7 970.2
СЗ 5-10
{10}
35 км 6/5 1000 м
[Cu med, cong Ac trans]
+16.4 +6.2 51 +16 +19 1019.8 970.3
СЗ 5
{9}
35 км 5/5 1000 м
[Cu med, cong]
+17.3 +6.2 48 +17 +21 1019.5 970.1
СЗ 5
{12}
35 км 5/5 1000 м
[Cu med, cong]
+18.1 +6.0 45 +18 +22 1018.8 969.6
З 5
{10}
35 км 4/4 1000 м
[Cu med, cong]
+18.8 +6.3 44 +19 +23 1018.5 969.4
СЗ 5
{12}
35 км 3/3 1500 м
[Cu med, cong]
+18.9 +6.0 43 +19 +22 1018.2 969.2
СЗ 5
{12}
35 км 1/1 1500 м
[Cu hum]
+18.3 +5.2 42 +18 +21 1018.2 969.1
СЗ 4-9
{10}
35 км 1/1 1500 м
[Cu hum]
+18.2 +3.6 38 +18 +20 1018.1 968.9
СЗ 3
{10}
35 км ясно +17.6 +3.8 40 +18 +18 1018.4 969.1
С 2
{12}
35 км ясно +15.6 +3.4 44 +16 +16 1019.1 969.5 +12.6 +19.3
Ю 1 35 км ясно +13.5 +3.8 52 +14 +14 1020.2 970.2
Ю 2 35 км ясно +12.0 +4.0 58 +11 +11 1020.8 970.5
ЮВ 2 35 км н/о +10.0 +4.4 68 +9 +9 1021.5 970.8
В 2 35 км н/о +8.4 +5.0 79 +7 +7 1021.9 970.9
ЮВ 2 35 км н/о +7.3 +4.6 83 +5 +5 1022.2 971.0
ЮВ 3 35 км н/о +6.6 +4.4 86 +3 +3 1022.0 970.7
ЮВ 2 35 км н/о +6.1 +4.3 88 +4 +4 1022.1 970.7
ЮВ 2 30 км н/о +5.2 +3.8 91 +3 +3 1022.2 970.6
ЮВ 2 28 км н/о +5.0 +3.8 92 +2 +2 1022.2 970.6
Ю 2 35 км н/о +5.1 +3.8 91 +2 +2 1022.5 970.9
ЮВ 1 35 км 3/0
[Ci sp]
+7.2 +5.2 87 +6 +9 1022.3 971.1
ЮВ 1 35 км 1/0
[Ci sp]
+10.9 +6.2 73 +11 +17 1021.6 971.0 +4.6 +15.6
З 1 35 км 1/1 1500 м
[Cu hum Ci sp]
+13.9 +6.7 62 +14 +24 1020.9 970.9
СЗ 2 35 км 3/1
[Cu hum Ci sp]
+15.9 +3.0 42 +16 +27 1020.7 971.0
ЮЗ 1 35 км 3/1 1500 м
[Cu hum Ci sp]
+17.3 +4.9 44 +18 +34 опасность
простуды
1020.4 971.0
З 3 35 км 4/1 1500 м
[Cu hum Ci sp]
+17.8 +4.0 40 +18 +30 опасность
простуды
1020.0 970.7
З 3 35 км 4/1 1500 м
[Cu hum Ci sp]
+18.6 +4.4 39 +19 +31 опасность
простуды
1019.3 970.2
З 3 35 км 4/1 1500 м
[Cu hum Ci sp]
+19.2 +3.8 36 +20 +30 1019.1 970.1
З 3 35 км 5/1 1500 м
[Cu hum Ci sp]
+19.8 +3.5 34 +20 +29 1018.6 969.7
СЗ 2 35 км 8/1 1500 м
[Cu hum Cs]
+19.8 +4.7 37 +21 +28 комфорт 1018.2 969.3
З 2 35 км 9/1 1500 м
[Cu hum Cs]
+19.8 +3.9 35 +21 +25 комфорт 1018.0 969.1
СЗ 3 35 км 8/1 1500 м
[Sc diur, vesp Cs]
+19.6 +3.7 35 +20 +22 1017.5 968.6
СЗ 2 35 км 8/0
[Cs]
+19.3 +4.6 38 +20 +21 1017.3 968.4
С 1 35 км 6/0
[Ac lent Ci sp]
+17.5 +4.4 42 +19 +19 1017.9 968.6 +10.8 +20.3
ЮВ 2 35 км 5/0
[Ci sp]
+14.8 +5.0 52 +15 +15 1018.8 969.0
ЮВ 3 35 км 5/0
[Ci sp]
+13.1 +5.3 59 +12 +12 1019.3 969.2
В 2 35 км н/о +11.3 +5.8 69 +10 +10 1019.9 969.5
Ю 2 35 км н/о +10.0 +5.4 73 +9 +9 1020.1 969.5
Ю 1 35 км н/о +9.4 +5.2 75 +9 +9 1020.1 969.4
ЮВ 2 35 км н/о +8.9 +5.3 78 +7 +7 1020.0 969.2
ЮВ 2 30 км н/о +7.9 +5.2 83 +6 +6 1019.9 968.9
ЮВ 2 30 км н/о +7.6 +5.2 85 +6 +6 1019.5 968.5
В 2 30 км н/о +7.6 +6.1 90 +5 +5 1019.3 968.3
В 2 30 км н/о +7.2 +5.3 88 +5 +5 1019.6 968.5
ЮВ 1 35 км 9/3 1000 м
[Sc Ac trans Ci sp]
+8.6 +6.2 85 +8 +9 1019.6 968.7
штиль 0 35 км 9/1 1000 м
[Sc Ac und Ci sp]
+10.9 +7.4 79 +10 +14 1019.0 968.6 +6.8 +17.5
В 1 35 км 5/1 1000 м
[Sc Ac trans Ci sp]
+15.2 +6.7 57 +16 +23 1018.2 968.5
В 1 35 км 9/0
[Ac trans Cs]
+17.9 +7.6 51 +19 +29 1017.4 968.2
СВ 3 35 км 9/0
[Ac trans Cs]
+18.5 +7.0 47 +19 +27 1016.9 967.9
С 3 35 км 9/1 1500 м
[Cu hum Ac und Ci sp]
+19.3 +5.4 40 +20 +27 1016.6 967.7
С 2 35 км 10/1 1500 м
[Cu hum Ac trans Cs]
+19.0 +4.0 37 +20 +27 1016.4 967.5
С 2 35 км 10/1 1500 м
[Cu hum Ac trans Cs]
+19.6 +4.5 37 +21 +28 комфорт 1016.1 967.3
С 3 35 км 10/1 1500 м
[Cu hum Ac As]
+18.1 +3.5 38 +18 +21 1016.4 967.3
С 2 35 км 10/1 1500 м
[Sc Ac As]
+17.2 +3.1 39 +18 +20 1016.5 967.3
С 2 35 км 10/0
[Ac As]
+17.0 +3.6 41 +17 +19 1016.5 967.2
С 2 35 км 10/0
[Ac As]
+16.1 +4.2 45 +16 +17 1016.5 967.1
С 2 35 км 9/0
[Ac As]
+15.4 +4.4 48 +15 +16 1016.9 967.3
С 3 35 км 9/3 1500 м
[Sc Ac trans]
+14.7 +3.8 48 +14 +14 1017.5 967.8 +10.9 +19.8
С 4
{9}
35 км 8/3 1500 м
[Sc Ac trans Ci sp]
+13.5 +2.4 47 +12 +12 1018.5 968.5
С 3 35 км 8/3 1500 м
[Sc Ac trans Ci sp]
+12.4 +1.4 47 +11 +11 1019.4 969.2
СВ 3
{9}
35 км н/о +11.0 +1.0 50 +10 +10 1020.6 970.1
СВ 3 35 км н/о +9.6 -0.1 51 +8 +8 1021.5 970.7
С 1
{8}
35 км н/о +8.6 -1.5 49 +8 +8 1022.2 971.2
СВ 4
{9}
35 км н/о +8.0 -2.6 47 +5 +5 1022.5 971.4
С 3 35 км н/о +7.0 -2.7 50 +5 +5 1023.3 972.0
Местоположение метеостанции Леско (Польша): широта 49.47 долгота 22.35 высота над уровнем моря 422 м.
В архиве по умолчанию представлена погода в Леско за последнюю неделю. Архивные данные за месяц целиком и за предыдущие месяцы, начиная с января 2011 года, Вы можете получить, выбрав интересующий диапазон дат из раскрывающегося списка и нажав кнопку "Найти!".
*Определитесь, кто Вы:
Внимание! Время в таблицах - всемирное. Для получения местного времени необходимо прибавить поправку, которая равна 1 ч.
Смотрите также архив погоды в соседних городах и на ближайших метеорологических станциях:
Партнеры нашего сайта:      
Пояснения к столбцам:
  • Ветер - указаны скорость ветра в м/с - средняя за 10 мин, порывы в срок и между сроками (в фигурных скобках) и направление, откуда дует ветер: С - северный,
  • СВ - северо-восточный, В - восточный, ЮВ - юго-восточный, Ю - южный, ЮЗ - юго-западный, З - западный, СЗ - северо-западный.
  • Видимость - горизонтальная дальность видимости в метрах или километрах. При видимости от 1 до 10 км при отсутствии осадков обычно наблюдается дымка, при ухудшении видимости до 1 км и менее - туман. В сухую погоду видимость может ухудшаться дымом, пылью или мглою.
  • Явления - указаны атмосферные явления, наблюдавшиеся в срок или в последний час перед сроком; фигурными скобками обозначены явления, наблюдавшиеся между сроками (за 1-3 часа до срока); квадратными скобками обозначены град или гололедные отложения с указанием их диаметра в мм.
  • Облачность - указаны через наклонную черту общая и нижняя облачность в баллах и высота нижней границы облаков в метрах; квадратными скобками обозначены формы облаков: Ci - перистые, Cs - перисто-слоистые, Cc - перисто-кучевые, Ac - высококучевые, As - высокослоистые, Sc - слоисто-кучевые, Ns - слоисто-дождевые, Cu - кучевые, Cb - кучево-дождевые. Подробнее классификацию облаков см. в Атласе облаков (PDF).
  • T - Температура воздуха - температура, измеренная на высоте 2 м над землей.
  • Td - Температура точки росы - температура, при понижении до которой содержащийся в воздухе водяной пар достигнет насыщения.
  • f - Относительная влажность воздуха - влажноcть воздуха, измеренная на высоте 2 м над землей.
  • Te - Эффективная температура - температура, которую ощущает одетый по сезону человек в тени. Характеристика душности погоды. При расчете учитывается влияние влажности воздуха и скорости ветра на теплоощущения человека.
  • Tes - Эффективная температура на солнце - температура, которую ощущает человек, с поправкой на солнечный нагрев. Характеристика знойности погоды. Зависит от высоты солнца над горизонтом, облачности и скорости ветра. Ночью, в пасмурную погоду, а также при ветре 12 м/с и более поправка равна нулю.
  • P - Атмосферное давление - приведенное к уровню моря атмосферное давление.
  • Po - Атмосферное давление - измеренное на уровне метеостанции атмосферное давление.
  • Tmin - Минимальная температура - минимум температуры воздуха на высоте 2 м над землей.
  • Tmax - Максимальная температура - максимум температуры воздуха на высоте 2 м над землей.
  • R - Количество осадков - Количество выпавших осадков за период времени, мм. При наведении курсора мыши на число - период времени, за который выпало указанное количество осадков.
  • R24 - Количество осадков - Количество выпавших осадков за 24 часа, мм.
  • S - Снежный покров - Высота снежного покрова, см. При наведении курсора мыши на число - состояние снежного покрова и степень покрытия местности в баллах.